 day, avr_air_temp(C), avr_RH(%), avr_ground_temp10cm(C), avr_ground_temp20cm(C), avr_ground_temp40cm(C), sum_precipitation(mm/h), sum_Solar_Radiation(MJ/m2h), max_air_temp(C), max_air_temp(time), max_RH(%), max_RH(time), max_ground_temp10cm(C), max_ground_temp10cm(time), max_ground_temp20cm(C), max_ground_temp20cm(time), max_ground_temp40cm(C), max_ground_temp40cm(time), max_precipitation(mm/h), max_precipitation(time), max_Solar_Radiation(MJ/m2h), max_Solar_Radiation(time), min_air_temp(C), min_air_temp(time), min_RH(%), min_RH(time), min_ground_temp10cm(C), min_ground_temp10cm(time), min_ground_temp20cm(C), min_ground_temp20cm(time), min_ground_temp40cm(C), min_ground_temp40cm(time), 
 04/01/01, -1.4, 86, 1.5, 2.2, 3.6, 1.5, 9.18, 1.7,  04/01/01 14:00, 99, 04/01/01 06:00, 1.6, 04/01/01 12:00, 2.3, 04/01/01 12:00, 3.7, 04/01/01 12:00, 0.5, 04/01/01 02:00, 2.1, 04/01/01 12:00, -3.3,  04/01/01 07:00, 65, 04/01/01 12:00, 1.5, 04/01/01 01:00, 2.2, 04/01/01 01:00, 3.5, 04/01/02 00:00, 
 04/01/02, -0.3, 82, 1.5, 2.2, 3.5, 0, 7.67, 2.6,  04/01/02 12:00, 98, 04/01/02 22:00, 1.6, 04/01/02 11:00, 2.2, 04/01/02 01:00, 3.6, 04/01/02 10:00, 0,   /  /     :, 1.53, 04/01/02 11:00, -1.6,  04/01/02 02:00, 62, 04/01/02 15:00, 1.5, 04/01/02 01:00, 2.2, 04/01/02 01:00, 3.5, 04/01/02 01:00, 
 04/01/03, -1.9, 90, 1.4, 2.1, 3.5, 3, 4.87, -0.6,  04/01/03 14:00, 99, 04/01/03 04:00, 1.5, 04/01/03 01:00, 2.2, 04/01/03 01:00, 3.5, 04/01/03 01:00, 1, 04/01/03 23:00, 1.25, 04/01/03 14:00, -3.2,  04/01/04 00:00, 75, 04/01/03 15:00, 1.4, 04/01/03 04:00, 2.1, 04/01/03 11:00, 3.5, 04/01/03 01:00, 
 04/01/04, -3.5, 72, 1.5, 2.1, 3.5, 1.5, 10.46, -1.6,  04/01/04 13:00, 95, 04/01/04 05:00, 1.5, 04/01/04 10:00, 2.1, 04/01/04 01:00, 3.6, 04/01/04 10:00, 0.5, 04/01/04 01:00, 1.92, 04/01/04 13:00, -6.1,  04/01/04 19:00, 54, 04/01/04 13:00, 1.4, 04/01/04 01:00, 2.1, 04/01/04 01:00, 3.4, 04/01/04 16:00, 
 04/01/05, -3.4, 71, 1.5, 2.2, 3.5, 0, 10.07, -0.8,  04/01/05 15:00, 88, 04/01/05 23:00, 1.6, 04/01/05 12:00, 2.2, 04/01/05 11:00, 3.5, 04/01/05 10:00, 0,   /  /     :, 1.59, 04/01/05 11:00, -6.3,  04/01/05 23:00, 57, 04/01/05 13:00, 1.4, 04/01/05 01:00, 2.1, 04/01/05 01:00, 3.4, 04/01/05 01:00, 
 04/01/06, -4.8, 76, 1.6, 2.2, 3.5, 0.5, 9.03, -1.4,  04/01/06 14:00, 90, 04/01/06 20:00, 1.7, 04/01/06 16:00, 2.2, 04/01/06 01:00, 3.6, 04/01/06 16:00, 0.5, 04/01/06 10:00, 1.74, 04/01/06 11:00, -7.1,  04/01/06 20:00, 48, 04/01/06 23:00, 1.4, 04/01/07 00:00, 2.2, 04/01/06 01:00, 3.5, 04/01/06 01:00, 
 04/01/07, -3.6, 64, 1, 1.9, 3.5, 2.5, 9.05, 1,  04/01/07 14:00, 98, 04/01/07 21:00, 1.3, 04/01/07 01:00, 2.2, 04/01/07 01:00, 3.5, 04/01/07 01:00, 1.5, 04/01/08 00:00, 1.85, 04/01/07 11:00, -8.2,  04/01/07 02:00, 34, 04/01/07 10:00, 0.8, 04/01/07 22:00, 1.8, 04/01/07 17:00, 3.4, 04/01/07 10:00, 
 04/01/08, -8.6, 92, 0.8, 1.7, 3.3, 11.5, 6.72, -3.8,  04/01/08 01:00, 99, 04/01/08 01:00, 0.8, 04/01/08 01:00, 1.8, 04/01/08 01:00, 3.4, 04/01/08 01:00, 2.5, 04/01/08 01:00, 1.32, 04/01/08 13:00, -11.5,  04/01/09 00:00, 78, 04/01/08 15:00, 0.7, 04/01/08 07:00, 1.6, 04/01/08 08:00, 3.2, 04/01/08 21:00, 
 04/01/09, -8.1, 81, 0.8, 1.6, 3.2, 0, 11.43, -4.6,  04/01/09 13:00, 99, 04/01/09 10:00, 0.8, 04/01/09 01:00, 1.6, 04/01/09 01:00, 3.2, 04/01/09 01:00, 0,   /  /     :, 2.29, 04/01/09 13:00, -12.6,  04/01/09 08:00, 47, 04/01/10 00:00, 0.7, 04/01/09 03:00, 1.5, 04/01/09 07:00, 3.1, 04/01/09 08:00, 
 04/01/10, -4.4, 69, 0.6, 1.5, 3.1, 2.5, 1.87, -1.5,  04/01/10 10:00, 97, 04/01/10 19:00, 0.7, 04/01/10 01:00, 1.5, 04/01/10 01:00, 3.1, 04/01/10 01:00, 1, 04/01/10 22:00, 0.3, 04/01/10 10:00, -8.3,  04/01/10 03:00, 29, 04/01/10 06:00, 0.6, 04/01/10 05:00, 1.4, 04/01/10 10:00, 2.9, 04/01/11 00:00, 
 04/01/11, -9.1, 83, 0.6, 1.3, 2.9, 1, 8.95, -7,  04/01/11 13:00, 92, 04/01/12 00:00, 0.6, 04/01/11 01:00, 1.4, 04/01/11 01:00, 3, 04/01/11 01:00, 0.5, 04/01/11 02:00, 1.92, 04/01/11 13:00, -12.3,  04/01/12 00:00, 69, 04/01/11 13:00, 0.6, 04/01/11 01:00, 1.3, 04/01/11 05:00, 2.9, 04/01/11 06:00, 
 04/01/12, -4.8, 62, 0.5, 1.3, 2.8, 0, 12.28, 0.7,  04/01/12 14:00, 91, 04/01/12 03:00, 0.6, 04/01/12 01:00, 1.3, 04/01/12 01:00, 2.9, 04/01/12 01:00, 0,   /  /     :, 2.15, 04/01/12 12:00, -13.4,  04/01/12 01:00, 27, 04/01/12 12:00, 0.4, 04/01/12 04:00, 1.3, 04/01/12 01:00, 2.8, 04/01/12 04:00, 
 04/01/13, -5.1, 93, 0.5, 1.2, 2.8, 36.5, 2.08, -2.5,  04/01/13 03:00, 99, 04/01/13 03:00, 0.5, 04/01/13 01:00, 1.3, 04/01/13 01:00, 2.9, 04/01/13 04:00, 5.5, 04/01/13 20:00, 0.49, 04/01/13 12:00, -8.4,  04/01/14 00:00, 84, 04/01/13 07:00, 0.4, 04/01/13 07:00, 1.2, 04/01/13 02:00, 2.8, 04/01/13 01:00, 
 04/01/14, -9.8, 96, 0.5, 1.2, 2.7, 20.5, 2.82, -8.6,  04/01/14 13:00, 99, 04/01/14 12:00, 0.5, 04/01/14 01:00, 1.2, 04/01/14 01:00, 2.8, 04/01/14 01:00, 4.5, 04/01/14 13:00, 0.42, 04/01/14 16:00, -10.5,  04/01/14 07:00, 91, 04/01/14 03:00, 0.4, 04/01/14 22:00, 1.2, 04/01/14 01:00, 2.7, 04/01/14 03:00, 
 04/01/15, -9.3, 98, 0.5, 1.2, 2.7, 2.5, 7.89, -7.7,  04/01/15 14:00, 99, 04/01/15 06:00, 0.5, 04/01/15 11:00, 1.3, 04/01/15 15:00, 2.8, 04/01/15 12:00, 0.5, 04/01/15 02:00, 1.75, 04/01/15 13:00, -10.4,  04/01/16 00:00, 94, 04/01/15 22:00, 0.4, 04/01/15 01:00, 1.2, 04/01/15 01:00, 2.6, 04/01/15 23:00, 
 04/01/16, -9.5, 96, 0.4, 1.2, 2.6, 0.5, 11.57, -6.2,  04/01/16 14:00, 99, 04/01/16 09:00, 0.5, 04/01/16 01:00, 1.2, 04/01/16 01:00, 2.7, 04/01/16 13:00, 0.5, 04/01/16 03:00, 2.15, 04/01/16 11:00, -11.1,  04/01/16 04:00, 92, 04/01/16 05:00, 0.3, 04/01/16 08:00, 1.1, 04/01/16 13:00, 2.6, 04/01/16 01:00, 
 04/01/17, -4.7, 97, 0.3, 1.1, 2.6, 5, 3.03, -2.9,  04/01/17 10:00, 99, 04/01/17 06:00, 0.4, 04/01/17 02:00, 1.1, 04/01/17 01:00, 2.6, 04/01/17 01:00, 1, 04/01/17 15:00, 0.55, 04/01/17 12:00, -9.6,  04/01/17 01:00, 83, 04/01/17 02:00, 0.3, 04/01/17 01:00, 1.1, 04/01/17 01:00, 2.5, 04/01/17 23:00, 
 04/01/18, -4.3, 84, 0.4, 1.1, 2.5, 0.5, 5.77, -1.2,  04/01/18 14:00, 99, 04/01/18 09:00, 0.4, 04/01/18 11:00, 1.1, 04/01/18 01:00, 2.5, 04/01/18 01:00, 0.5, 04/01/18 02:00, 0.99, 04/01/18 12:00, -9.4,  04/01/18 03:00, 53, 04/01/18 22:00, 0.3, 04/01/18 01:00, 1.1, 04/01/18 01:00, 2.5, 04/01/18 01:00, 
 04/01/19, -3.3, 95, 0.3, 1.1, 2.5, 15, 1.51, -1.4,  04/01/19 11:00, 99, 04/01/19 07:00, 0.4, 04/01/19 03:00, 1.1, 04/01/19 01:00, 2.5, 04/01/19 01:00, 3.5, 04/01/19 14:00, 0.39, 04/01/19 16:00, -4.8,  04/01/19 22:00, 87, 04/01/19 18:00, 0.3, 04/01/19 01:00, 1, 04/01/19 13:00, 2.5, 04/01/19 01:00, 
 04/01/20, -4.4, 85, 0.4, 1, 2.5, 0.5, 11.4, -1.6,  04/01/20 14:00, 95, 04/01/20 18:00, 0.4, 04/01/20 11:00, 1.1, 04/01/20 04:00, 2.6, 04/01/20 14:00, 0.5, 04/01/20 02:00, 2.25, 04/01/20 12:00, -7.8,  04/01/20 07:00, 65, 04/01/20 11:00, 0.3, 04/01/20 01:00, 1, 04/01/20 01:00, 2.4, 04/01/20 22:00, 
 04/01/21, -4.7, 83, 0.4, 1.1, 2.5, 1, 6.48, -2.5,  04/01/21 12:00, 95, 04/01/21 22:00, 0.5, 04/01/21 17:00, 1.2, 04/01/21 17:00, 2.5, 04/01/21 03:00, 0.5, 04/01/21 23:00, 1.26, 04/01/21 11:00, -7.2,  04/01/22 00:00, 67, 04/01/21 07:00, 0.3, 04/01/21 01:00, 1, 04/01/21 01:00, 2.4, 04/01/21 01:00, 
 04/01/22, -11.2, 83, 0.5, 1.2, 2.5, 8, 8.8, -8.3,  04/01/22 01:00, 92, 04/01/22 01:00, 0.5, 04/01/22 01:00, 1.2, 04/01/22 03:00, 2.6, 04/01/22 17:00, 1.5, 04/01/22 22:00, 1.59, 04/01/22 14:00, -13.2,  04/01/22 19:00, 62, 04/01/22 14:00, 0.5, 04/01/22 01:00, 1.1, 04/01/22 01:00, 2.5, 04/01/22 01:00, 
 04/01/23, -8.2, 94, 0.5, 1.1, 2.5, 14.5, 0.97, -4.6,  04/01/23 12:00, 99, 04/01/23 11:00, 0.5, 04/01/23 01:00, 1.2, 04/01/23 01:00, 2.6, 04/01/23 13:00, 2.5, 04/01/23 02:00, 0.23, 04/01/23 12:00, -12.4,  04/01/23 01:00, 89, 04/01/23 02:00, 0.4, 04/01/23 19:00, 1.1, 04/01/23 02:00, 2.5, 04/01/23 01:00, 
 04/01/24, -6.9, 95, 0.4, 1.1, 2.5, 1.5, 1.38, -3.3,  04/01/24 13:00, 99, 04/01/24 08:00, 0.5, 04/01/24 13:00, 1.1, 04/01/24 01:00, 2.5, 04/01/24 01:00, 0.5, 04/01/24 07:00, 0.28, 04/01/24 12:00, -9.5,  04/01/24 07:00, 90, 04/01/24 22:00, 0.4, 04/01/24 01:00, 1, 04/01/24 07:00, 2.5, 04/01/24 01:00, 
 04/01/25, -8.6, 93, 0.4, 1, 2.5, 2.5, 1.69, -5.2,  04/01/25 10:00, 99, 04/01/25 09:00, 0.5, 04/01/25 14:00, 1.1, 04/01/25 12:00, 2.5, 04/01/25 01:00, 1, 04/01/25 03:00, 0.33, 04/01/25 13:00, -12,  04/01/25 07:00, 87, 04/01/25 14:00, 0.4, 04/01/25 01:00, 1, 04/01/25 01:00, 2.5, 04/01/25 01:00, 
 04/01/26, -8.4, 91, 0.4, 1, 2.5, 1, 3.14, -4.6,  04/01/26 14:00, 99, 04/01/26 09:00, 0.4, 04/01/26 01:00, 1.1, 04/01/26 13:00, 2.5, 04/01/26 01:00, 0.5, 04/01/26 02:00, 0.58, 04/01/26 14:00, -12.3,  04/01/26 05:00, 81, 04/01/26 22:00, 0.4, 04/01/26 01:00, 1, 04/01/26 01:00, 2.4, 04/01/26 10:00, 
 04/01/27, -7, 95, 0.4, 1, 2.3, 1.5, 1.26, -4.4,  04/01/27 13:00, 99, 04/01/27 11:00, 0.4, 04/01/27 01:00, 1, 04/01/27 01:00, 2.4, 04/01/27 01:00, 0.5, 04/01/27 03:00, 0.24, 04/01/27 11:00, -9.3,  04/01/28 00:00, 91, 04/01/27 01:00, 0.3, 04/01/27 23:00, 1, 04/01/27 01:00, 2.3, 04/01/27 03:00, 
 04/01/28, -5.9, 82, 0.4, 1, 2.3, 0.5, 3.76, -2.2,  04/01/28 14:00, 92, 04/01/28 04:00, 0.4, 04/01/28 01:00, 1, 04/01/28 01:00, 2.4, 04/01/28 12:00, 0.5, 04/01/28 19:00, 0.74, 04/01/28 14:00, -9.8,  04/01/28 01:00, 65, 04/01/28 15:00, 0.3, 04/01/28 08:00, 1, 04/01/28 01:00, 2.3, 04/01/28 01:00, 
 04/01/29, -3.6, 86, 0.4, 1, 2.4, 2, 3.5, -0.4,  04/01/29 14:00, 98, 04/01/29 09:00, 0.5, 04/01/29 13:00, 1.1, 04/01/29 11:00, 2.4, 04/01/29 10:00, 0.5, 04/01/29 02:00, 0.76, 04/01/29 14:00, -5.9,  04/01/30 00:00, 66, 04/01/29 16:00, 0.3, 04/01/29 03:00, 1, 04/01/29 01:00, 2.3, 04/01/29 01:00, 
 04/01/30, -4.5, 81, 0.4, 1, 2.3, 0.5, 3.57, -2.3,  04/01/30 14:00, 96, 04/01/30 22:00, 0.4, 04/01/30 01:00, 1.1, 04/01/30 02:00, 2.4, 04/01/30 01:00, 0.5, 04/01/30 11:00, 0.68, 04/01/30 10:00, -6.9,  04/01/31 00:00, 63, 04/01/30 06:00, 0.4, 04/01/30 01:00, 1, 04/01/30 01:00, 2.3, 04/01/30 08:00, 
 04/01/31, -6.2, 72, 0.5, 1, 2.3, 1, 9.37, -3.3,  04/01/31 13:00, 94, 04/01/31 03:00, 0.5, 04/01/31 11:00, 1, 04/01/31 01:00, 2.3, 04/01/31 01:00, 0.5, 04/01/31 05:00, 2.02, 04/01/31 15:00, -7.3,  04/01/31 19:00, 44, 04/02/01 00:00, 0.4, 04/01/31 01:00, 1, 04/01/31 01:00, 2.3, 04/01/31 01:00, 
 04/02/01, -2.7, 47, 0.4, 1, 2.3, 0, 11.78, 2.7,  04/02/01 13:00, 70, 04/02/01 07:00, 0.4, 04/02/01 01:00, 1, 04/02/01 01:00, 2.3, 04/02/01 01:00, 0,   /  /     :, 2.16, 04/02/01 12:00, -10.2,  04/02/01 07:00, 31, 04/02/01 23:00, 0.3, 04/02/01 08:00, 1, 04/02/01 01:00, 2.3, 04/02/01 01:00, 
 04/02/02, 1.3, 92, 0.3, 1, 2.3, 14.5, 2, 3.6,  04/02/02 14:00, 99, 04/02/02 11:00, 0.3, 04/02/02 01:00, 1, 04/02/02 01:00, 2.3, 04/02/02 01:00, 2.5, 04/02/02 16:00, 0.43, 04/02/02 12:00, -1.1,  04/02/02 23:00, 56, 04/02/02 01:00, 0.3, 04/02/02 01:00, 1, 04/02/02 01:00, 2.2, 04/02/02 23:00, 
 04/02/03, -3.3, 94, 0.3, 1, 2.2, 12.5, 3.88, -1.5,  04/02/03 01:00, 99, 04/02/03 09:00, 0.3, 04/02/03 01:00, 1, 04/02/03 01:00, 2.2, 04/02/03 01:00, 3.5, 04/02/03 21:00, 0.82, 04/02/03 11:00, -7.5,  04/02/04 00:00, 89, 04/02/04 00:00, 0.3, 04/02/03 01:00, 0.9, 04/02/03 06:00, 2, 04/02/04 00:00, 
 04/02/04, -7, 94, 0.4, 1, 2.1, 8, 4.4, -4.4,  04/02/04 12:00, 99, 04/02/04 10:00, 0.4, 04/02/04 05:00, 1, 04/02/04 01:00, 2.2, 04/02/04 02:00, 1, 04/02/04 06:00, 1.17, 04/02/04 11:00, -8.4,  04/02/04 04:00, 89, 04/02/04 15:00, 0.3, 04/02/04 01:00, 0.9, 04/02/04 05:00, 2, 04/02/04 05:00, 
 04/02/05, -8.3, 91, 0.4, 1, 2.1, 9, 3.41, -6.1,  04/02/05 13:00, 96, 04/02/05 15:00, 0.5, 04/02/05 14:00, 1, 04/02/05 01:00, 2.1, 04/02/05 04:00, 1.5, 04/02/05 16:00, 0.66, 04/02/05 12:00, -10.4,  04/02/05 07:00, 86, 04/02/05 09:00, 0.4, 04/02/05 01:00, 0.9, 04/02/05 02:00, 2, 04/02/05 01:00, 
 04/02/06, -7.8, 95, 0.4, 1, 2.1, 6.5, 4.36, -4,  04/02/06 11:00, 99, 04/02/06 11:00, 0.4, 04/02/06 01:00, 1, 04/02/06 01:00, 2.1, 04/02/06 01:00, 1, 04/02/06 04:00, 0.92, 04/02/06 12:00, -10.1,  04/02/06 05:00, 84, 04/02/06 09:00, 0.4, 04/02/06 01:00, 0.9, 04/02/06 06:00, 2, 04/02/06 06:00, 
 04/02/07, -8.4, 97, 0.3, 0.9, 2, 10.5, 2.31, -6.1,  04/02/07 13:00, 99, 04/02/07 08:00, 0.4, 04/02/07 01:00, 1, 04/02/07 01:00, 2, 04/02/07 01:00, 2, 04/02/07 06:00, 0.47, 04/02/07 10:00, -10,  04/02/07 04:00, 94, 04/02/07 03:00, 0.3, 04/02/07 05:00, 0.9, 04/02/07 02:00, 2, 04/02/07 01:00, 
 04/02/08, -7.1, 97, 0.3, 0.9, 2, 4, 3.68, -4.1,  04/02/08 11:00, 99, 04/02/08 03:00, 0.4, 04/02/08 12:00, 1, 04/02/08 16:00, 2, 04/02/08 01:00, 0.5, 04/02/08 02:00, 0.7, 04/02/08 13:00, -10.6,  04/02/08 07:00, 91, 04/02/08 07:00, 0.3, 04/02/08 01:00, 0.9, 04/02/08 01:00, 2, 04/02/08 01:00, 
 04/02/09, -5.9, 91, 0.4, 0.9, 2, 4, 2.56, -1.2,  04/02/09 13:00, 99, 04/02/09 08:00, 0.4, 04/02/09 13:00, 0.9, 04/02/09 01:00, 2, 04/02/09 01:00, 2, 04/02/09 11:00, 0.5, 04/02/09 12:00, -9.4,  04/02/10 00:00, 78, 04/02/09 13:00, 0.3, 04/02/09 01:00, 0.9, 04/02/09 01:00, 2, 04/02/09 01:00, 
 04/02/10, -7.5, 78, 0.3, 0.9, 2, 0, 8.07, -1.9,  04/02/10 13:00, 99, 04/02/10 08:00, 0.3, 04/02/10 01:00, 1, 04/02/10 12:00, 2.1, 04/02/10 13:00, 0,   /  /     :, 1.47, 04/02/10 16:00, -13.4,  04/02/10 06:00, 49, 04/02/10 15:00, 0.2, 04/02/10 07:00, 0.8, 04/02/10 22:00, 2, 04/02/10 01:00, 
 04/02/11, -4, 80, 0.3, 0.8, 2, 1.5, 11.08, 0,  04/02/11 14:00, 98, 04/02/11 20:00, 0.3, 04/02/11 01:00, 0.9, 04/02/11 13:00, 2.1, 04/02/11 13:00, 1, 04/02/11 21:00, 2.28, 04/02/11 13:00, -6.9,  04/02/11 08:00, 54, 04/02/11 14:00, 0.3, 04/02/11 01:00, 0.8, 04/02/11 01:00, 2, 04/02/11 01:00, 
 04/02/12, -4.1, 86, 0.3, 0.8, 2, 2.5, 8.7, -1.8,  04/02/12 13:00, 99, 04/02/12 16:00, 0.4, 04/02/12 13:00, 0.9, 04/02/12 11:00, 2.1, 04/02/12 11:00, 1.5, 04/02/12 07:00, 2.44, 04/02/12 12:00, -5.2,  04/02/12 21:00, 70, 04/02/12 14:00, 0.2, 04/02/12 03:00, 0.8, 04/02/12 01:00, 2, 04/02/12 01:00, 
 04/02/13, -3.6, 66, 0.3, 0.9, 2.1, 0.5, 16.63, 1.2,  04/02/13 16:00, 94, 04/02/13 04:00, 0.4, 04/02/13 12:00, 0.9, 04/02/13 12:00, 2.1, 04/02/13 12:00, 0.5, 04/02/13 14:00, 2.71, 04/02/13 12:00, -10,  04/02/13 06:00, 34, 04/02/13 17:00, 0.3, 04/02/13 01:00, 0.8, 04/02/13 01:00, 2, 04/02/13 01:00, 
 04/02/14, -1.1, 79, 0.3, 0.9, 2, 7, 13.13, 3.9,  04/02/14 13:00, 99, 04/02/14 17:00, 0.4, 04/02/14 13:00, 0.9, 04/02/14 01:00, 2.1, 04/02/14 01:00, 2, 04/02/14 18:00, 2.44, 04/02/14 13:00, -5.2,  04/02/15 00:00, 44, 04/02/14 13:00, 0.3, 04/02/14 01:00, 0.8, 04/02/14 07:00, 2, 04/02/14 02:00, 
 04/02/15, -5.7, 97, 0.4, 0.9, 2, 36.5, 2.49, -4.5,  04/02/15 15:00, 99, 04/02/15 13:00, 0.4, 04/02/15 03:00, 0.9, 04/02/15 01:00, 2, 04/02/15 01:00, 6, 04/02/15 07:00, 0.58, 04/02/15 15:00, -9.3,  04/02/16 00:00, 93, 04/02/16 00:00, 0.3, 04/02/15 01:00, 0.9, 04/02/15 01:00, 2, 04/02/15 01:00, 
 04/02/16, -6.9, 89, 0.3, 0.9, 2, 6, 12.18, -3.6,  04/02/16 13:00, 95, 04/02/16 11:00, 0.4, 04/02/16 12:00, 0.9, 04/02/16 01:00, 2, 04/02/16 01:00, 1, 04/02/16 01:00, 2.37, 04/02/16 13:00, -9.2,  04/02/16 21:00, 59, 04/02/16 23:00, 0.3, 04/02/16 01:00, 0.9, 04/02/16 01:00, 2, 04/02/16 01:00, 
 04/02/17, -3.5, 72, 0.3, 0.8, 2, 5, 3.31, -2.3,  04/02/17 12:00, 99, 04/02/17 18:00, 0.3, 04/02/17 01:00, 0.9, 04/02/17 01:00, 2, 04/02/17 01:00, 2, 04/02/17 16:00, 0.69, 04/02/17 12:00, -4.8,  04/02/17 23:00, 31, 04/02/17 07:00, 0.3, 04/02/17 01:00, 0.8, 04/02/17 08:00, 2, 04/02/17 01:00, 
 04/02/18, -4.4, 66, 0.3, 0.9, 2, 1.5, 18.49, -1.7,  04/02/18 14:00, 92, 04/02/18 02:00, 0.3, 04/02/18 01:00, 0.9, 04/02/18 01:00, 2, 04/02/18 01:00, 0.5, 04/02/18 01:00, 2.75, 04/02/18 12:00, -8.6,  04/02/18 07:00, 39, 04/02/18 14:00, 0.3, 04/02/18 01:00, 0.8, 04/02/18 02:00, 2, 04/02/18 01:00, 
 04/02/19, 1.4, 43, 0.3, 0.9, 1.9, 0.5, 16.63, 5.5,  04/02/19 13:00, 70, 04/02/19 01:00, 0.4, 04/02/19 11:00, 0.9, 04/02/19 04:00, 2, 04/02/19 01:00, 0.5, 04/02/19 07:00, 2.54, 04/02/19 13:00, -3.1,  04/02/19 03:00, 29, 04/02/19 15:00, 0.3, 04/02/19 01:00, 0.8, 04/02/19 01:00, 1.7, 04/02/19 17:00, 
 04/02/20, 2.1, 49, 0.3, 0.8, 1.8, 0, 17.88, 8.4,  04/02/20 13:00, 86, 04/02/21 00:00, 0.4, 04/02/20 14:00, 0.9, 04/02/20 11:00, 1.9, 04/02/20 01:00, 0,   /  /     :, 2.69, 04/02/20 12:00, -3.2,  04/02/20 04:00, 30, 04/02/20 13:00, 0.3, 04/02/20 01:00, 0.8, 04/02/20 01:00, 1.8, 04/02/20 03:00, 
 04/02/21, 3.6, 66, 0.3, 0.8, 1.7, 0, 14.62, 8.4,  04/02/21 13:00, 86, 04/02/21 04:00, 0.3, 04/02/21 01:00, 0.9, 04/02/21 12:00, 1.9, 04/02/21 01:00, 0,   /  /     :, 2.44, 04/02/21 12:00, -1.2,  04/02/21 07:00, 39, 04/02/21 13:00, 0.3, 04/02/21 01:00, 0.7, 04/02/21 20:00, 1.7, 04/02/21 05:00, 
 04/02/22, 5.8, 88, 0.3, 0.7, 1.6, 44, 2.5, 8,  04/02/22 21:00, 99, 04/02/22 12:00, 0.3, 04/02/22 01:00, 0.8, 04/02/22 01:00, 1.8, 04/02/22 02:00, 18, 04/02/22 23:00, 0.4, 04/02/22 11:00, 2.1,  04/02/23 00:00, 61, 04/02/22 02:00, 0.1, 04/02/23 00:00, 0.3, 04/02/23 00:00, 1.2, 04/02/23 00:00, 
 04/02/23, -4.3, 93, 0.2, 0.4, 1.3, 10, 3.76, 1.1,  04/02/23 01:00, 99, 04/02/23 01:00, 0.2, 04/02/23 11:00, 0.5, 04/02/23 17:00, 1.4, 04/02/23 21:00, 3.5, 04/02/23 01:00, 0.71, 04/02/23 12:00, -8.6,  04/02/24 00:00, 84, 04/02/23 23:00, 0.1, 04/02/23 01:00, 0.3, 04/02/23 01:00, 1.1, 04/02/23 06:00, 
 04/02/24, -2.4, 45, 0.2, 0.6, 1.4, 0, 13.85, 3.5,  04/02/24 15:00, 92, 04/02/24 02:00, 0.2, 04/02/24 01:00, 0.7, 04/02/24 04:00, 1.5, 04/02/24 01:00, 0,   /  /     :, 1.88, 04/02/24 10:00, -10.4,  04/02/24 03:00, 25, 04/02/24 11:00, 0.1, 04/02/24 06:00, 0.6, 04/02/24 01:00, 1.4, 04/02/24 02:00, 
 04/02/25, 1.2, 59, 0.2, 0.6, 1.5, 0, 15.63, 5.2,  04/02/25 15:00, 74, 04/02/25 07:00, 0.2, 04/02/25 01:00, 0.7, 04/02/25 14:00, 1.6, 04/02/25 02:00, 0,   /  /     :, 2.48, 04/02/25 14:00, -2.3,  04/02/25 04:00, 37, 04/02/25 15:00, 0.2, 04/02/25 01:00, 0.6, 04/02/25 01:00, 1.4, 04/02/25 22:00, 
 04/02/26, -2.3, 93, 0.2, 0.7, 1.5, 5.5, 3.9, 0.7,  04/02/26 01:00, 99, 04/02/26 11:00, 0.2, 04/02/26 01:00, 0.7, 04/02/26 04:00, 1.7, 04/02/26 11:00, 1.5, 04/02/26 22:00, 0.93, 04/02/26 12:00, -8.3,  04/02/26 23:00, 75, 04/02/26 01:00, 0.2, 04/02/26 01:00, 0.6, 04/02/26 01:00, 1.4, 04/02/26 18:00, 
 04/02/27, -7.2, 82, 0.2, 0.6, 1.5, 3, 9.75, -4.7,  04/02/27 15:00, 95, 04/02/27 02:00, 0.2, 04/02/27 01:00, 0.7, 04/02/27 12:00, 1.6, 04/02/27 09:00, 1, 04/02/27 02:00, 1.97, 04/02/27 14:00, -10.3,  04/02/27 04:00, 68, 04/02/27 22:00, 0.1, 04/02/27 06:00, 0.6, 04/02/27 01:00, 1.5, 04/02/27 01:00, 
 04/02/28, -0.9, 52, 0.2, 0.6, 1.5, 0.5, 17.83, 4.6,  04/02/28 15:00, 75, 04/02/28 06:00, 0.2, 04/02/28 10:00, 0.7, 04/02/28 12:00, 1.6, 04/02/28 01:00, 0.5, 04/02/28 05:00, 2.7, 04/02/28 12:00, -6.1,  04/02/28 01:00, 26, 04/02/28 20:00, 0.1, 04/02/28 01:00, 0.6, 04/02/28 01:00, 1.4, 04/02/28 11:00, 
 04/02/29, 1.5, 88, 0.1, 0.6, 1.5, 8.5, 3.66, 3.7,  04/02/29 16:00, 99, 04/02/29 05:00, 0.1, 04/02/29 01:00, 0.6, 04/02/29 01:00, 1.6, 04/02/29 02:00, 2, 04/02/29 06:00, 1.22, 04/02/29 16:00, -3.1,  04/03/01 00:00, 36, 04/02/29 01:00, 0.1, 04/02/29 01:00, 0.6, 04/02/29 01:00, 1.4, 04/02/29 17:00, 
 04/03/01, -4.6, 91, 0.1, 0.6, 1.4, 5, 5.11, -0.7,  04/03/01 01:00, 99, 04/03/01 02:00, 0.2, 04/03/01 19:00, 0.6, 04/03/01 01:00, 1.5, 04/03/01 09:00, 2, 04/03/01 12:00, 1.1, 04/03/01 15:00, -7.5,  04/03/02 00:00, 60, 04/03/01 01:00, 0.1, 04/03/01 01:00, 0.6, 04/03/01 01:00, 1.3, 04/03/01 03:00, 
 04/03/02, -6, 79, 0.1, 0.6, 1.4, 2.5, 6.8, -2.4,  04/03/02 14:00, 96, 04/03/02 18:00, 0.1, 04/03/02 01:00, 0.7, 04/03/02 12:00, 1.5, 04/03/02 02:00, 1, 04/03/02 20:00, 1.09, 04/03/02 11:00, -9.3,  04/03/02 02:00, 46, 04/03/02 08:00, 0.1, 04/03/02 01:00, 0.6, 04/03/02 01:00, 1.3, 04/03/02 16:00, 
 04/03/03, -5.9, 63, 0.1, 0.6, 1.4, 0.5, 15.94, -1.3,  04/03/03 14:00, 95, 04/03/03 01:00, 0.2, 04/03/03 14:00, 0.6, 04/03/03 01:00, 1.5, 04/03/03 02:00, 0.5, 04/03/03 05:00, 2.72, 04/03/03 13:00, -11.7,  04/03/03 04:00, 37, 04/03/03 12:00, 0.1, 04/03/03 01:00, 0.6, 04/03/03 01:00, 1.3, 04/03/03 19:00, 
 04/03/04, -6.5, 86, 0.2, 0.6, 1.5, 4.5, 9.03, -4.8,  04/03/04 11:00, 97, 04/03/04 09:00, 0.2, 04/03/04 11:00, 0.7, 04/03/04 13:00, 1.6, 04/03/04 13:00, 1.5, 04/03/04 14:00, 1.83, 04/03/04 11:00, -9.4,  04/03/04 20:00, 55, 04/03/04 01:00, 0.1, 04/03/04 01:00, 0.6, 04/03/04 01:00, 1.4, 04/03/04 02:00, 
 04/03/05, -6, 71, 0.2, 0.6, 1.6, 0, 17.05, -1.7,  04/03/05 14:00, 93, 04/03/05 02:00, 0.2, 04/03/05 03:00, 0.7, 04/03/05 16:00, 1.7, 04/03/05 13:00, 0,   /  /     :, 2.74, 04/03/05 11:00, -13.6,  04/03/05 06:00, 53, 04/03/05 09:00, 0.1, 04/03/05 01:00, 0.6, 04/03/05 01:00, 1.5, 04/03/05 01:00, 
 04/03/06, -5.8, 90, 0.2, 0.6, 1.6, 9.5, 9.31, -1.9,  04/03/06 04:00, 99, 04/03/06 03:00, 0.2, 04/03/06 03:00, 0.7, 04/03/06 08:00, 1.7, 04/03/06 02:00, 2, 04/03/06 04:00, 2.83, 04/03/06 13:00, -12.3,  04/03/07 00:00, 68, 04/03/06 15:00, 0.1, 04/03/06 01:00, 0.6, 04/03/06 01:00, 1.6, 04/03/06 01:00, 
 04/03/07, -8.6, 84, 0.1, 0.4, 1, 7, 5.66, 9.3,  04/03/07 10:00, 93, 04/03/07 05:00, 0.1, 04/03/07 01:00, 0.6, 04/03/07 01:00, 1.6, 04/03/07 01:00, 1.5, 04/03/07 06:00, 1.1, 04/03/07 15:00, -11.4,  04/03/07 01:00, 78, 04/03/07 14:00, 0.1, 04/03/07 01:00, 0.6, 04/03/07 01:00, 1.6, 04/03/07 01:00, 
 04/03/08, -6.2, 64, 0.7, 1.1, 2, 1, 12.4, -3.3,  04/03/08 01:00, 84, 04/03/08 02:00, 0.7, 04/03/08 01:00, 1, 04/03/08 01:00, 1.8, 04/03/08 01:00, 0.5, 04/03/08 02:00, 1.91, 04/03/08 11:00, -6.1,  04/03/08 00:00, 0, 04/03/08 01:00, 0.6, 04/03/08 05:00, 1, 04/03/08 01:00, 1.8, 04/03/08 01:00, 
 04/03/09, -5.6, 63, 0.6, 1.1, 2, 0.5, 13.31, -5.8,  04/03/09 15:00, 78, 04/03/09 06:00, 0.6, 04/03/09 01:00, 1, 04/03/09 01:00, 1.8, 04/03/09 01:00, 0.5, 04/03/09 18:00, 1.98, 04/03/09 12:00, -11.1,  04/03/09 23:00, 51, 04/03/09 02:00, 0.6, 04/03/09 01:00, 1, 04/03/09 01:00, 1.7, 04/03/09 02:00, 
 04/03/10, -4.9, 58, 0.6, 1.1, 1.9, 0, 10.09, -5.9,  04/03/10 11:00, 77, 04/03/10 06:00, 0.6, 04/03/10 01:00, 1, 04/03/10 02:00, 1.8, 04/03/10 02:00, 0,   /  /     :, 1.88, 04/03/10 11:00, -11.8,  04/03/10 03:00, 37, 04/03/10 02:00, 0.5, 04/03/10 00:00, 0.9, 04/03/10 01:00, 1.7, 04/03/10 01:00, 
 04/03/11, -6.2, 77, 0.7, 1.1, 1.9, 0, 15.8, -4.9,  04/03/11 14:00, 96, 04/03/11 02:00, 0.6, 04/03/11 01:00, 1, 04/03/11 01:00, 1.8, 04/03/11 01:00, 0,   /  /     :, 2.18, 04/03/11 14:00, -11.4,  04/03/11 21:00, 47, 04/03/11 10:00, 0.5, 04/03/11 03:00, 1, 04/03/11 01:00, 1.7, 04/03/11 02:00, 
 04/03/12, -4.5, 55, 0.7, 1.1, 1.9, 0, 16.62, -3.3,  04/03/12 15:00, 79, 04/03/12 08:00, 0.6, 04/03/12 01:00, 1, 04/03/12 01:00, 1.8, 04/03/12 11:00, 0,   /  /     :, 2.35, 04/03/12 13:00, -11,  04/03/12 05:00, 43, 04/03/12 10:00, 0.5, 04/03/12 02:00, 0.9, 04/03/12 15:00, 1.7, 04/03/12 01:00, 
 04/03/13, -4.9, 34, 0.8, 1.7, 2, 0, 21.3, -1.1,  04/03/13 14:00, 50, 04/03/13 00:00, 0.7, 04/03/13 11:00, 1, 04/03/13 11:00, 2, 04/03/13 14:00, 0,   /  /     :, 2.91, 04/03/13 13:00, -12,  04/03/13 04:00, 34, 04/03/13 02:00, 0.5, 04/03/13 01:00, 0.9, 04/03/13 01:00, 1.7, 04/03/13 01:00, 
 04/03/14, 0.4, 44, 0.9, 1.3, 2, 0, 19.28, 2.7,  04/03/14 14:00, 69, 04/03/14 04:00, 0.6, 04/03/14 01:00, 1, 04/03/14 00:00, 1.8, 04/03/14 01:00, 0,   /  /     :, 2.77, 04/03/14 12:00, -9.5,  04/03/14 06:00, 31, 04/03/14 02:00, 0.6, 04/03/14 01:00, 0.9, 04/03/14 02:00, 1.8, 04/03/14 01:00, 
 04/03/15, 0.9, 50, 1.1, 1.4, 1.2, 0, 5.42, 0.9,  04/03/15 16:00, 74, 04/03/15 08:00, 0.6, 04/03/15 01:00, 1, 04/03/15 01:00, 1.8, 04/03/15 01:00, 0,   /  /     :, 0.95, 04/03/15 16:00, -3.7,  04/03/15 00:00, 35, 04/03/15 02:00, 0.6, 04/03/15 01:00, 0.9, 04/03/15 08:00, 1.8, 04/03/15 01:00, 
 04/03/16, 0.2, 46, 1.2, 1.5, 2, 0, 17.48, 0.9,  04/03/16 12:00, 68, 04/03/16 10:00, 0.6, 04/03/16 01:00, 1.1, 04/03/16 13:00, 1.8, 04/03/16 01:00, 0,   /  /     :, 2.89, 04/03/16 12:00, -6.3,  04/03/16 04:00, 24, 04/03/16 12:00, 0.6, 04/03/16 01:00, 0.9, 04/03/16 01:00, 1.7, 04/03/16 03:00, 
 04/03/17, 1.6, 70, 1.2, 1.5, 2.1, 21, 8.96, 3.5,  04/03/17 01:00, 89, 04/03/17 22:00, 0.6, 04/03/17 01:00, 0.9, 04/03/17 01:00, 1.8, 04/03/17 01:00, 4, 04/03/17 22:00, 1.15, 04/03/17 15:00, -3.7,  04/03/17 00:00, 51, 04/03/17 08:00, 0.6, 04/03/17 01:00, 0.9, 04/03/17 01:00, 1.7, 04/03/17 08:00, 
 04/03/18, -0.9, 82, 1.1, 1.4, 2.1, 12.5, 12.07, 0,  04/03/18 14:00, 90, 04/03/18 04:00, 0.6, 04/03/18 01:00, 1, 04/03/18 16:00, 1.8, 04/03/18 01:00, 4, 04/03/18 02:00, 2.09, 04/03/18 13:00, -7.1,  04/03/18 00:00, 62, 04/03/18 10:00, 0.6, 04/03/18 01:00, 0.9, 04/03/18 01:00, 1.7, 04/03/18 03:00, 